EW8735 Weather Reports


time (UTC)temp
C
wind
direction
speed
KPH
gust
KPH
rain 1hr
cm
rain 24hr
cm
rain mn
cm
humidity
%
barometer
mb
20260507151549 13 218 0.0 0.0 0.00 0.00 0.00 62 1013.3
20260507150050 12 217 0.0 0.0 0.00 0.00 0.00 69 1013.5
20260507144546 10 217 0.0 0.0 0.00 0.00 0.00 74 1013.5
20260507143057 10 218 0.0 0.0 0.00 0.00 0.00 76 1013.4
20260507141547 8 218 0.0 0.0 0.00 0.00 0.00 76 1013.4
20260507140042 8 217 0.0 0.0 0.00 0.00 0.00 79 1013.2
20260507134540 8 217 0.0 0.0 0.00 0.00 0.00 79 1012.9
20260507133044 7 219 0.0 0.0 0.00 0.00 0.00 78 1012.6
20260507131545 8 219 0.0 0.0 0.00 0.00 0.00 76 1012.6
20260507130036 8 218 0.0 0.0 0.00 0.00 0.00 72 1012.6
20260507124528 11 218 0.0 0.0 0.00 0.00 0.00 66 1012.6
20260507123026 11 219 0.0 0.0 0.00 0.00 0.00 65 1012.4
20260507121527 11 218 0.0 0.0 0.00 0.00 0.00 65 1012.5
20260507120027 11 218 0.0 0.0 0.00 0.00 0.00 64 1012.4
20260507114524 11 218 0.0 0.0 0.00 0.00 0.00 62 1012.5
20260507113026 11 219 0.0 0.0 0.00 0.00 0.00 60 1012.5
20260507111523 11 219 0.0 0.0 0.00 0.00 0.00 61 1012.4
20260507110022 11 218 0.0 0.0 0.00 0.00 0.00 60 1012.4
20260507104521 11 218 0.0 0.0 0.00 0.00 0.00 60 1012.4
20260507103020 11 218 0.0 0.0 0.00 0.00 0.00 62 1012.3
20260507101519 10 219 0.0 0.0 0.00 0.00 0.00 66 1012.5
20260507100018 10 218 0.0 0.0 0.00 0.00 0.00 65 1012.3
20260507094517 10 219 0.0 0.0 0.00 0.00 0.00 64 1012.4
20260507093016 11 218 0.0 0.0 0.00 0.00 0.00 62 1012.5
20260507091511 12 219 0.0 0.0 0.00 0.00 0.00 58 1012.4
20260507090011 11 218 0.0 0.0 0.00 0.00 0.00 61 1012.3
20260507084529 11 218 0.0 0.0 0.00 0.00 0.00 61 1012.3
20260507083006 12 219 0.0 0.0 0.00 0.00 0.00 58 1012.3
20260507081504 12 218 0.0 0.0 0.00 0.00 0.00 57 1012.3
20260507080003 12 218 0.0 0.0 0.00 0.00 0.00 56 1012.1
20260507074608 12 218 0.0 0.0 0.00 0.00 0.00 58 1012.0
20260507073102 12 218 0.0 0.0 0.00 0.00 0.00 59 1012.1
20260507071605 12 218 0.0 0.0 0.00 0.00 0.00 58 1011.9
20260507070104 13 218 0.0 0.0 0.00 0.00 0.00 57 1012.1
20260507064556 13 219 0.0 0.0 0.00 0.00 0.00 57 1012.1
20260507063051 13 218 0.0 0.0 0.00 0.00 0.00 56 1012.0
20260507061551 13 218 0.0 0.0 0.00 0.00 0.00 56 1011.9
20260507060051 14 218 0.0 0.0 0.00 0.00 0.00 55 1011.9
20260507054609 15 218 0.0 0.0 0.00 0.00 0.00 51 1011.8
20260507053102 16 219 0.0 0.0 0.00 0.00 0.00 47 1011.8
20260507051555 17 219 0.0 0.0 0.00 0.00 0.00 43 1011.8
20260507050054 17 220 0.0 0.0 0.00 0.00 0.00 43 1011.6
20260507044555 18 214 0.0 0.0 0.00 0.00 0.00 42 1011.8
20260507043049 17 214 0.0 0.0 0.00 0.00 0.00 43 1011.8
20260507041559 18 214 0.0 0.0 0.00 0.00 0.00 42 1011.8
20260507040049 20 218 0.0 0.0 0.00 0.00 0.00 40 1011.5
20260507034548 20 224 0.0 0.0 0.00 0.00 0.00 38 1011.2
20260507033047 20 239 0.0 0.0 0.00 0.00 0.00 36 1011.1
20260507031546 21 241 0.0 0.0 0.00 0.00 0.00 36 1010.9
20260507030046 21 254 0.0 0.0 0.00 0.00 0.00 35 1010.6
20260507024551 21 228 0.0 0.0 0.00 0.00 0.00 35 1010.6
20260507023045 21 261 0.0 0.0 0.00 0.00 0.00 37 1010.5
20260507021557 21 262 0.0 0.0 0.00 0.00 0.00 37 1010.5
20260507020105 21 268 0.0 0.0 0.00 0.00 0.00 35 1010.2
20260507014606 22 287 0.0 0.0 0.00 0.00 0.00 37 1010.1
20260507013047 23 299 0.0 0.0 0.00 0.00 0.00 36 1010.0
20260507011553 23 311 0.0 0.0 0.00 0.00 0.00 36 1009.9
20260507010045 23 273 0.0 0.0 0.00 0.00 0.00 36 1009.8
20260507004541 23 273 0.0 0.0 0.00 0.00 0.00 35 1009.6
20260507003041 24 264 0.0 0.0 0.00 0.00 0.00 31 1009.4
20260507001556 25 254 0.0 0.0 0.00 0.00 0.00 32 1009.3
20260507000053 25 265 0.0 0.0 0.00 0.00 0.00 33 1009.4
20260506234558 26 261 0.0 0.0 0.00 0.00 0.00 33 1009.3
20260506233046 25 263 0.0 0.0 0.00 0.00 0.00 34 1009.2
20260506231539 25 261 0.0 0.0 0.00 0.00 0.00 31 1009.2
20260506230038 26 261 0.0 0.0 0.00 0.00 0.00 33 1009.2
20260506224538 26 266 0.0 0.0 0.00 0.00 0.00 33 1009.3
20260506223038 26 270 0.0 0.0 0.00 0.00 0.00 31 1009.3
20260506221550 26 261 0.0 0.0 0.00 0.00 0.00 34 1009.5
20260506220043 27 299 0.0 0.0 0.00 0.00 0.00 40 1009.9
20260506214536 27 303 0.0 0.0 0.00 0.00 0.00 40 1009.8
20260506213043 27 299 0.0 0.0 0.00 0.00 0.00 40 1009.8
20260506211543 27 270 0.0 0.0 0.00 0.00 0.00 37 1009.7
20260506210043 27 281 0.0 0.0 0.00 0.00 0.00 34 1009.7
20260506204533 27 256 0.0 0.0 0.00 0.00 0.00 31 1009.6
20260506203032 26 248 0.0 0.0 0.00 0.00 0.00 33 1009.8
20260506201534 26 258 0.0 0.0 0.00 0.00 0.00 37 1009.8
20260506200030 26 266 0.0 0.0 0.00 0.00 0.00 36 1009.9
20260506194522 25 282 0.0 0.0 0.00 0.00 0.00 40 1010.2
20260506193032 24 292 0.0 0.0 0.00 0.00 0.00 44 1010.5
20260506191516 23 4 0.0 0.0 0.00 0.00 0.00 47 1010.8
20260506190014 23 4 0.0 0.0 0.00 0.00 0.00 45 1010.9
20260506184511 23 4 0.0 0.0 0.00 0.00 0.00 47 1011.2
20260506183010 22 4 0.0 0.0 0.00 0.00 0.00 46 1011.4
20260506181523 22 8 0.0 0.0 0.00 0.00 0.00 45 1011.6
20260506180008 22 9 0.0 0.0 0.00 0.00 0.00 47 1011.9
20260506174504 22 9 0.0 0.0 0.00 0.00 0.00 48 1011.9
20260506173004 21 9 0.0 0.0 0.00 0.00 0.00 52 1011.9
20260506171609 21 14 0.0 0.0 0.00 0.00 0.00 49 1011.9
20260506170112 21 359 0.0 0.0 0.00 0.00 0.00 50 1011.9
20260506164554 20 350 0.0 0.0 0.00 0.00 0.00 53 1011.8
20260506163057 20 341 0.0 0.0 0.00 0.00 0.00 52 1012.0
20260506161550 20 341 0.0 0.0 0.00 0.00 0.00 53 1011.9
20260506160048 19 341 0.0 0.0 0.00 0.00 0.00 54 1011.9
20260506154605 19 359 0.0 0.0 0.00 0.00 0.00 56 1012.2
20260506153041 18 44 0.0 0.0 0.00 0.00 0.00 57 1012.1